[[{"header":{"parameterUnit":"m.s-1","parameterCategory":1,"la1":30.2991,"la2":30.254,"lo1":-89.0895,"lo2":-89.0444,"dy":0.0017,"dx":0.0017,"nx":28,"ny":28,"refTime":"2025-05-15T09:00:00:Z","depth":0,"parameterNumber":2,"parameterNumberName":"U-component_of_WINDS"},"data":[0,0,0,0,0,0,0,0,0,0,0,0,0,0,0,0,0,0,0,0,0,0,0,0,0,0,0,0,0,0,0,0,0,0,0,0,0,0,0,0,0,0,0,0,0,0,0,0,0,0,0,0,0,0,0,0,0,0,1.4685,1.4686,0,1.4763,1.4764,1.4765,1.4767,1.4766,1.4765,1.4764,1.4844,1.4846,1.4849,0,0,0,0,0,0,0,0,0,0,0,0,0,1.4534,1.4537,1.4685,1.4686,1.4687,1.4763,1.4764,1.4765,1.4767,1.4766,1.4765,1.4764,1.4843,1.4846,1.485,0,0,0,0,0,0,0,0,0,0,0,0,0,1.4605,1.4538,1.4685,1.4697,1.4699,1.4763,1.4764,1.4766,1.4768,1.4766,1.4765,1.4763,1.4841,1.4846,1.485,1.4907,0,0,1.4864,1.4866,0,0,0,0,0,0,0,0,1.4601,1.4611,1.4694,1.4696,1.4699,1.4754,1.474,1.4813,1.4768,1.4742,1.4764,1.4763,1.4815,1.4821,1.4839,1.491,1.4914,1.4864,1.4867,1.4869,1.487,0,0,0,0,0,0,0,1.4596,1.4607,1.4716,1.4695,1.4698,1.4698,1.4706,1.4754,1.4785,1.4744,1.4744,1.4753,1.4816,1.4835,1.4841,1.4915,1.4864,1.4868,1.4871,1.4873,1.5036,1.5037,0,0,0,0,0,0,1.4589,1.4603,1.4713,1.4718,1.4645,1.4702,1.4711,1.4738,1.4785,1.4791,1.4755,1.4753,1.4828,1.4836,1.4844,1.4913,1.4869,1.4873,1.4876,1.5034,1.5036,1.5038,0,0,0,0,0,0,1.4586,1.4599,1.471,1.4661,1.4675,1.4706,1.4736,1.474,1.4759,1.4793,1.4798,1.4769,1.4827,1.4838,1.4891,1.4915,1.4875,1.4879,1.5032,1.5035,1.5037,1.5051,0,0,0,0,0,0,1.4581,1.4598,1.462,1.4661,1.4678,1.4756,1.4737,1.4743,1.4767,1.4766,1.4808,1.4813,1.4827,1.4884,1.4895,1.4921,1.4883,1.503,1.5033,1.5036,1.5048,1.5053,1.5058,0,0,0,0,0,1.4576,1.4621,1.4621,1.4634,1.4706,1.4758,1.4767,1.4783,1.4769,1.4791,1.4813,1.4812,1.4911,1.489,1.4902,1.4929,1.5028,1.5032,1.5036,1.5046,1.5052,1.5058,0,0,0,0,0,0,1.4581,1.4626,1.4627,1.4687,1.4718,1.4758,1.4787,1.4789,1.4825,1.4822,1.4839,1.4849,1.4901,1.4921,1.4896,1.4986,1.4968,1.4974,1.4972,1.4978,1.4982,1.4976,1.4887,0,0,0,0,0,1.4589,1.4628,1.4665,1.4714,1.473,1.4756,1.4779,1.4788,1.4821,1.4834,1.486,1.4892,1.493,1.4955,1.4992,1.5051,1.506,1.5076,1.5081,1.5084,1.5089,1.5121,1.5128,1.505,1.505,1.505,0,0,1.4606,1.4635,1.4659,1.4715,1.4741,1.478,1.4767,1.4809,1.4838,1.4841,1.4893,1.4912,1.4949,1.5005,1.5031,1.5023,1.5113,1.5089,1.5092,1.5095,1.5126,1.5133,1.514,1.5052,1.5052,1.5051,0,0,1.4656,1.4683,1.4726,1.4752,1.4791,1.4808,1.4819,1.4858,1.4871,1.4924,1.4927,1.4961,1.5027,1.5053,1.5075,1.5135,1.5134,1.5146,1.5171,1.5201,1.5208,1.5213,1.5234,1.5241,1.5151,1.5151,1.5151,0,1.4672,1.4732,1.4748,1.479,1.4814,1.4819,1.4863,1.4887,1.4936,1.4953,1.4943,1.5025,1.5051,1.5112,1.5127,1.5145,1.5156,1.5141,1.5205,1.5211,1.5217,1.5236,1.5244,1.5152,1.5152,1.5152,1.5152,0,1.4749,1.479,1.482,1.4868,1.4896,1.4938,1.496,1.4986,1.4993,1.501,1.5063,1.5094,1.5137,1.5152,1.5159,1.5215,1.5208,1.5202,1.5184,1.5225,1.5244,1.5252,1.5154,1.5154,1.5153,1.5153,0,0,1.4804,1.486,1.4871,1.4892,1.4936,1.4968,1.501,1.5053,1.5074,1.5108,1.5143,1.5199,1.5193,1.5218,1.5227,1.5254,1.5299,1.5245,1.5246,1.5253,1.5361,1.5365,1.5374,1.5299,1.5301,1.5302,1.5358,0,1.4858,1.4935,1.495,1.5016,1.5053,1.5059,1.5095,1.5126,1.5143,1.5177,1.5196,1.5235,1.5225,1.524,1.5267,1.5288,1.5321,1.5284,1.5331,1.5333,1.5321,1.5384,1.5388,1.5439,1.5365,1.5366,1.5367,0,1.4932,1.4968,1.5037,1.5075,1.5092,1.5125,1.5165,1.5197,1.5232,1.5242,1.527,1.5277,1.532,1.53,1.536,1.5334,1.5355,1.5368,1.537,1.5375,1.5352,1.5389,1.5456,1.5463,1.5379,1.5378,1.5378,0,1.4965,1.503,1.508,1.5098,1.5144,1.5167,1.5187,1.522,1.5244,1.5279,1.5295,1.5334,1.5355,1.5385,1.5402,1.5386,1.546,1.5442,1.5469,1.5469,1.5484,1.5482,1.5554,1.5498,1.5498,1.5498,1.5498,0,1.5023,1.5065,1.5095,1.5126,1.5172,1.519,1.5236,1.5255,1.5284,1.5318,1.5325,1.5356,1.5377,1.5411,1.5425,1.5471,1.5481,1.549,1.5493,1.549,1.5488,1.5502,1.5499,1.55,1.55,1.5499,1.5499,0,1.5067,1.5089,1.5143,1.5182,1.5193,1.5226,1.5259,1.5288,1.5306,1.5349,1.536,1.5387,1.5427,1.5447,1.5498,1.5507,1.5559,1.556,1.5548,1.5549,1.5575,1.5572,1.5658,1.5669,1.5606,1.5607,1.5607,0,1.5103,1.5135,1.5178,1.5201,1.5222,1.526,1.5285,1.5303,1.5328,1.537,1.5394,1.5435,1.5468,1.5533,1.5557,1.5595,1.5597,1.5624,1.5602,1.5597,1.5596,1.5593,1.5596,1.5628,1.5628,1.5629,1.5629,0,1.5163,1.5173,1.5209,1.5249,1.5278,1.531,1.5342,1.536,1.5384,1.5412,1.5454,1.548,1.5531,1.5571,1.5611,1.5631,1.5634,1.5636,1.5644,1.564,1.5631,1.5635,1.5557,1.5634,1.5633,1.5633,1.5633,1.5633,1.5204,1.5233,1.5267,1.5307,1.5332,1.5362,1.5391,1.5412,1.5448,1.5491,1.55,1.5544,1.5577,1.5631,1.5652,1.5686,1.568,1.5692,1.5695,1.5697,1.5698,1.5626,1.5693,1.5693,1.5693,1.5693,1.5693,0,1.5264,1.5286,1.5323,1.5367,1.5398,1.5399,1.5433,1.5459,1.5498,1.5528,1.5562,1.5609,1.5648,1.5675,1.5715,1.5737,1.5739,1.5746,1.5744,1.5749,1.5702,1.569,1.5744,1.5744,1.5744,1.5744,1.5744,1.5744,1.5299,1.5347,1.536,1.5422,1.5444,1.5487,1.5507,1.5534,1.5558,1.5611,1.5644,1.5661,1.569,1.5732,1.5767,1.5774,1.5788,1.5795,1.5802,1.5757,1.5752,1.5747,1.5736,1.5798,1.5798,1.5846,1.5846,1.5847]},{"header":{"parameterUnit":"m.s-1","parameterCategory":1,"la1":30.2991,"la2":30.254,"lo1":-89.0895,"lo2":-89.0444,"dy":0.0017,"dx":0.0017,"nx":28,"ny":28,"refTime":"2025-05-15T09:00:00:Z","depth":0,"parameterNumber":3,"parameterNumberName":"V-component_of_WINDS"},"data":[0,0,0,0,0,0,0,0,0,0,0,0,0,0,0,0,0,0,0,0,0,0,0,0,0,0,0,0,0,0,0,0,0,0,0,0,0,0,0,0,0,0,0,0,0,0,0,0,0,0,0,0,0,0,0,0,0,0,5.2004,5.2004,0,5.2069,5.2069,5.207,5.2024,5.2022,5.202,5.2018,5.2079,5.2082,5.2086,0,0,0,0,0,0,0,0,0,0,0,0,0,5.1834,5.1838,5.2004,5.2004,5.2005,5.2068,5.2069,5.207,5.2024,5.2022,5.2019,5.2017,5.2078,5.2082,5.2086,0,0,0,0,0,0,0,0,0,0,0,0,0,5.1904,5.1839,5.2004,5.199,5.199,5.2068,5.2069,5.207,5.2025,5.2022,5.2019,5.2016,5.2077,5.2082,5.2087,5.218,0,0,5.2103,5.2105,0,0,0,0,0,0,0,0,5.19,5.1911,5.1991,5.1991,5.1991,5.2035,5.2032,5.2107,5.2026,5.2011,5.2018,5.2014,5.2067,5.2072,5.2091,5.2183,5.2186,5.2103,5.2107,5.2109,5.211,0,0,0,0,0,0,0,5.1896,5.1908,5.2029,5.1993,5.1992,5.1979,5.1986,5.2046,5.2055,5.2012,5.2009,5.2018,5.2066,5.2086,5.2092,5.2187,5.2103,5.2108,5.2111,5.2113,5.2359,5.2362,0,0,0,0,0,0,5.1893,5.1904,5.2027,5.2031,5.1937,5.1985,5.1992,5.2024,5.2054,5.2056,5.202,5.2015,5.2079,5.2086,5.2094,5.2206,5.2109,5.2114,5.2117,5.2355,5.2359,5.2363,0,0,0,0,0,0,5.1889,5.1904,5.2024,5.1967,5.1981,5.1991,5.2027,5.2027,5.2047,5.206,5.2061,5.204,5.2077,5.2087,5.216,5.2208,5.2116,5.2121,5.2351,5.2357,5.2361,5.2431,0,0,0,0,0,0,5.1885,5.1903,5.194,5.1968,5.1984,5.2091,5.203,5.203,5.2057,5.2051,5.2079,5.2081,5.2075,5.2152,5.2165,5.2213,5.2125,5.2347,5.2354,5.236,5.2424,5.2437,5.2449,0,0,0,0,0,5.1879,5.1956,5.1943,5.1958,5.2031,5.2094,5.2103,5.2096,5.2061,5.2098,5.2106,5.208,5.22,5.216,5.2174,5.2225,5.2344,5.2352,5.2359,5.2419,5.2435,5.2448,0,0,0,0,0,0,5.1932,5.1959,5.1945,5.2034,5.2062,5.2086,5.2132,5.2114,5.2151,5.2144,5.2132,5.2139,5.2216,5.2227,5.2182,5.2317,5.2266,5.2277,5.2307,5.2322,5.2334,5.233,5.213,0,0,0,0,0,5.1954,5.2005,5.2025,5.2101,5.2117,5.2122,5.2149,5.2142,5.217,5.2181,5.2194,5.2221,5.2265,5.2294,5.2335,5.2425,5.243,5.2467,5.2479,5.2489,5.2499,5.2547,5.2563,5.2388,5.2388,5.2388,0,0,5.2,5.2022,5.2054,5.2113,5.2134,5.2185,5.2132,5.2188,5.2225,5.2188,5.2259,5.227,5.2299,5.2381,5.2418,5.2393,5.2548,5.2499,5.2507,5.2511,5.2556,5.2573,5.2588,5.2393,5.2392,5.2391,0,0,5.2111,5.2132,5.2198,5.2221,5.2254,5.2257,5.2273,5.23,5.2307,5.2377,5.2351,5.2394,5.247,5.2491,5.2512,5.2631,5.2608,5.2644,5.2709,5.2756,5.277,5.2782,5.2825,5.284,5.2654,5.2654,5.2654,0,5.2163,5.2241,5.2234,5.2293,5.2319,5.229,5.2356,5.2377,5.2421,5.2439,5.2411,5.2506,5.2523,5.261,5.264,5.2657,5.2674,5.2642,5.2769,5.2781,5.2793,5.2833,5.2849,5.2658,5.2658,5.2657,5.2657,0,5.2304,5.2358,5.2407,5.2453,5.2485,5.2546,5.2547,5.258,5.2569,5.2575,5.2647,5.2667,5.2711,5.2731,5.2721,5.2817,5.28,5.2771,5.272,5.2814,5.2851,5.2867,5.2664,5.2663,5.2661,5.266,0,0,5.245,5.2492,5.251,5.2531,5.2565,5.2606,5.2665,5.2711,5.2739,5.277,5.2819,5.2884,5.2858,5.2881,5.2873,5.2914,5.3007,5.288,5.288,5.2903,5.3114,5.3137,5.3155,5.2992,5.2995,5.2997,5.3112,0,5.2562,5.267,5.2665,5.2764,5.2814,5.2787,5.2839,5.2864,5.2871,5.2912,5.2918,5.2965,5.2926,5.294,5.298,5.2988,5.305,5.2979,5.3037,5.3039,5.3031,5.3174,5.3198,5.3305,5.3126,5.3129,5.3131,0,5.2708,5.2747,5.2852,5.288,5.29,5.2947,5.2989,5.3029,5.3057,5.3058,5.3086,5.3071,5.3129,5.3077,5.3157,5.311,5.3133,5.314,5.3144,5.3149,5.3091,5.3184,5.3339,5.3356,5.3154,5.3152,5.315,0,5.2805,5.2883,5.2956,5.2974,5.3008,5.3042,5.3057,5.3082,5.311,5.3145,5.3163,5.3203,5.3226,5.3257,5.3253,5.3215,5.3335,5.3282,5.3337,5.3337,5.3364,5.3362,5.3525,5.3378,5.3377,5.3377,5.3377,0,5.2932,5.2997,5.3,5.3045,5.3117,5.311,5.318,5.3192,5.3214,5.326,5.3237,5.328,5.3272,5.3313,5.331,5.3377,5.3387,5.3389,5.3388,5.3392,5.3392,5.3407,5.34,5.3381,5.338,5.338,5.3379,0,5.3052,5.3057,5.3135,5.3161,5.3169,5.3221,5.3242,5.3283,5.3288,5.3346,5.3359,5.3365,5.3414,5.3412,5.3466,5.3464,5.3547,5.3536,5.3538,5.3536,5.3591,5.3586,5.3771,5.3794,5.3631,5.3633,5.3634,0,5.3133,5.3183,5.3215,5.3245,5.3263,5.3311,5.334,5.3334,5.3364,5.34,5.3437,5.3484,5.3521,5.3599,5.3608,5.3649,5.3639,5.3701,5.3645,5.3648,5.3641,5.3638,5.3643,5.3712,5.3714,5.3715,5.3717,0,5.3276,5.3276,5.332,5.3364,5.34,5.3434,5.3465,5.349,5.3487,5.3522,5.3573,5.3602,5.3658,5.3704,5.3743,5.3757,5.3736,5.3734,5.3749,5.3754,5.3753,5.3755,5.3568,5.373,5.3729,5.3728,5.3727,5.3726,5.338,5.3423,5.3453,5.3502,5.3525,5.3555,5.3596,5.3606,5.3649,5.3695,5.3689,5.3745,5.377,5.3822,5.3839,5.3881,5.3859,5.3881,5.3886,5.3892,5.3898,5.3746,5.3888,5.3888,5.3887,5.3887,5.3887,0,5.3522,5.354,5.3585,5.3631,5.3669,5.3648,5.3682,5.3714,5.3765,5.3792,5.3829,5.3886,5.3931,5.3943,5.3986,5.4017,5.4009,5.4029,5.4027,5.403,5.3915,5.3899,5.4035,5.4035,5.4035,5.4035,5.4035,5.4035,5.3601,5.3674,5.3677,5.376,5.3777,5.3833,5.3854,5.3881,5.3903,5.3969,5.4006,5.4015,5.4035,5.4079,5.4119,5.4121,5.4138,5.4161,5.416,5.4053,5.4038,5.4024,5.4008,5.4165,5.4165,5.4271,5.4272,5.4273]}]]